This is the latest recevied weather packets stored in our database for station/object VA6GSB-13. If no packets are shown the sender has not sent any weather packets the latest 10 day(s).
| Time | Temp. | Humidity | Pressure | Rain* | Wind** | Luminosity | Snow |
|---|---|---|---|---|---|---|---|
| 1787594741 | 18.33° C | 67% | 1017 hPa | 0 mm | - | 518 W/m² | - |
| 1787594439 | 18.33° C | 67% | 1017 hPa | 0 mm | - | 384 W/m² | - |
| 1787594363 | 18.33° C | 69% | 1017 hPa | 0 mm | - | 363 W/m² | - |
| 1787594140 | 18.33° C | 70% | 1017 hPa | 0 mm | - | 339 W/m² | - |
| 1787594064 | 18.33° C | 70% | 1017 hPa | 0 mm | - | 339 W/m² | - |
| 1787593843 | 18.33° C | 72% | 1017 hPa | 0 mm | - | 323 W/m² | - |
| 1787593539 | 17.78° C | 73% | 1017 hPa | 0 mm | - | 321 W/m² | - |
| 1787593463 | 17.78° C | 73% | 1016.9 hPa | 0 mm | - | 321 W/m² | - |
| 1787593164 | 17.78° C | 73% | 1016.8 hPa | 0 mm | - | 317 W/m² | - |
| 1787592939 | 17.22° C | 75% | 1017 hPa | 0 mm | - | 283 W/m² | - |
| 1787592863 | 17.22° C | 75% | 1016.9 hPa | 0 mm | - | 283 W/m² | - |
| 1787592639 | 17.22° C | 76% | 1017 hPa | 0 mm | - | 242 W/m² | - |
| 1787592339 | 17.22° C | 77% | 1017 hPa | 0 mm | - | 190 W/m² | - |
| 1787592040 | 16.67° C | 77% | 1017 hPa | 0 mm | - | 187 W/m² | - |
| 1787591740 | 16.67° C | 78% | 1017 hPa | 0 mm | - | 170 W/m² | - |
| 1787591439 | 16.67° C | 78% | 1017 hPa | 0 mm | - | 144 W/m² | - |
| 1787591363 | 16.67° C | 78% | 1016.5 hPa | 0 mm | - | 144 W/m² | - |
| 1787591063 | 16.67° C | 79% | 1016.5 hPa | 0 mm | - | 120 W/m² | - |
| 1787590765 | 16.67° C | 79% | 1016.5 hPa | 0 mm | - | 116 W/m² | - |
| 1787590463 | 16.67° C | 78% | 1016.4 hPa | 0 mm | - | 136 W/m² | - |
| 1787590163 | 16.67° C | 79% | 1016.2 hPa | 0 mm | - | 145 W/m² | - |
| 1787589940 | 16.67° C | 79% | 1016 hPa | 0 mm | - | 165 W/m² | - |
| 1787589864 | 16.67° C | 79% | 1016.2 hPa | 0 mm | - | 165 W/m² | - |
| 1787589563 | 16.67° C | 79% | 1016.2 hPa | 0 mm | - | 153 W/m² | - |
| 1787589113 | 16.67° C | 79% | 1016 hPa | 0 mm | - | 134 W/m² | - |
* Rain latest hour (hover to see other rain measurements)
** Current wind speed in m/s (hover to see current wind gust speed)